TimeCDT,TemperatureF,Dew PointF,Humidity,Sea Level PressureIn,VisibilityMPH,Wind Direction,Wind SpeedMPH,Gust SpeedMPH,PrecipitationIn,Events,Conditions,WindDirDegrees,DateUTC
12:12 AM,78.8,69.8,74,30.00,10.0,South,15.0,20.7,N/A,,Clear,180,2013-08-25 05:12:00
12:32 AM,78.8,69.8,74,30.00,10.0,South,13.8,20.7,N/A,,Clear,180,2013-08-25 05:32:00
12:53 AM,78.8,69.8,74,30.00,10.0,South,16.1,21.9,N/A,,Clear,180,2013-08-25 05:53:00
1:12 AM,78.8,69.8,74,30.01,10.0,South,15.0,21.9,N/A,,Clear,190,2013-08-25 06:12:00
1:32 AM,78.8,69.8,74,30.01,10.0,South,13.8,20.7,N/A,,Clear,190,2013-08-25 06:32:00
1:53 AM,78.8,69.8,74,30.01,10.0,South,15.0,21.9,N/A,,Clear,190,2013-08-25 06:53:00
2:12 AM,78.8,69.8,74,30.01,10.0,South,12.7,21.9,N/A,,Clear,180,2013-08-25 07:12:00
2:32 AM,78.8,69.8,74,30.01,10.0,South,15.0,23.0,N/A,,Clear,190,2013-08-25 07:32:00
2:53 AM,77.0,69.8,78,30.02,10.0,South,13.8,19.6,N/A,,Clear,190,2013-08-25 07:53:00
3:12 AM,77.0,69.8,78,30.03,10.0,South,11.5,17.3,N/A,,Clear,190,2013-08-25 08:12:00
3:32 AM,77.0,69.8,78,30.02,10.0,South,11.5,18.4,N/A,,Clear,190,2013-08-25 08:32:00
3:53 AM,77.0,69.8,78,30.02,10.0,South,13.8,18.4,N/A,,Clear,190,2013-08-25 08:53:00
4:12 AM,75.2,69.8,83,30.03,10.0,South,10.4,17.3,N/A,,Clear,190,2013-08-25 09:12:00
4:32 AM,75.2,69.8,83,30.03,10.0,South,12.7,-,N/A,,Clear,190,2013-08-25 09:32:00
4:53 AM,75.2,69.8,83,30.04,10.0,South,11.5,16.1,N/A,,Clear,190,2013-08-25 09:53:00
5:12 AM,75.2,69.8,83,30.04,10.0,South,10.4,17.3,N/A,,Clear,190,2013-08-25 10:12:00
5:32 AM,75.2,69.8,83,30.03,10.0,South,12.7,18.4,N/A,,Clear,180,2013-08-25 10:32:00
5:53 AM,75.2,69.8,83,30.03,10.0,South,12.7,17.3,N/A,,Clear,190,2013-08-25 10:53:00
6:12 AM,75.2,69.8,83,30.04,10.0,South,11.5,20.7,N/A,,Clear,180,2013-08-25 11:12:00
6:32 AM,75.2,69.8,83,30.04,10.0,South,11.5,17.3,N/A,,Clear,180,2013-08-25 11:32:00
6:53 AM,75.2,69.8,83,30.04,10.0,South,11.5,19.6,N/A,,Clear,180,2013-08-25 11:53:00
7:12 AM,75.2,69.8,83,30.05,10.0,South,12.7,18.4,N/A,,Clear,170,2013-08-25 12:12:00
7:32 AM,75.2,69.8,83,30.04,10.0,South,12.7,20.7,N/A,,Clear,180,2013-08-25 12:32:00
7:52 AM,77.0,69.8,78,30.04,10.0,South,12.7,16.1,N/A,,Clear,180,2013-08-25 12:52:00
8:12 AM,77.0,69.8,78,30.04,10.0,South,16.1,20.7,N/A,,Clear,180,2013-08-25 13:12:00
8:33 AM,78.8,69.8,74,30.04,10.0,South,15.0,20.7,N/A,,Clear,190,2013-08-25 13:33:00
8:52 AM,78.8,69.8,74,30.03,10.0,South,15.0,21.9,N/A,,Clear,180,2013-08-25 13:52:00
9:12 AM,80.6,69.8,70,30.03,10.0,South,15.0,24.2,N/A,,Clear,190,2013-08-25 14:12:00
9:33 AM,80.6,69.8,70,30.03,10.0,South,18.4,25.3,N/A,,Clear,190,2013-08-25 14:33:00
9:52 AM,82.4,69.8,66,30.03,10.0,South,16.1,21.9,N/A,,Clear,190,2013-08-25 14:52:00
10:12 AM,82.4,71.6,70,30.02,10.0,South,12.7,26.5,N/A,,Clear,190,2013-08-25 15:12:00
10:33 AM,84.2,69.8,62,30.03,10.0,South,16.1,24.2,N/A,,Clear,190,2013-08-25 15:33:00
10:52 AM,84.2,71.6,66,30.03,10.0,SSW,15.0,21.9,N/A,,Clear,200,2013-08-25 15:52:00
11:12 AM,86.0,71.6,62,30.03,10.0,SSW,15.0,23.0,N/A,,Clear,200,2013-08-25 16:12:00
11:33 AM,87.8,71.6,58,30.02,10.0,SSW,19.6,23.0,N/A,,Clear,200,2013-08-25 16:33:00
11:52 AM,87.8,69.8,55,30.02,10.0,SSW,18.4,23.0,N/A,,Clear,200,2013-08-25 16:52:00
12:12 PM,87.8,69.8,55,30.02,10.0,South,20.7,25.3,N/A,,Clear,190,2013-08-25 17:12:00
12:33 PM,87.8,71.6,58,30.01,10.0,South,15.0,24.2,N/A,,Clear,180,2013-08-25 17:33:00
12:52 PM,87.8,69.8,55,30.01,10.0,South,20.7,27.6,N/A,,Clear,180,2013-08-25 17:52:00
1:12 PM,89.6,71.6,55,30.01,10.0,Calm,Calm,26.5,N/A,,Clear,190,2013-08-25 18:12:00
1:32 PM,89.6,69.8,52,30.00,10.0,SSW,18.4,25.3,N/A,,Clear,200,2013-08-25 18:32:00
1:52 PM,89.6,71.6,55,30.00,10.0,South,16.1,23.0,N/A,,Clear,190,2013-08-25 18:52:00
2:12 PM,89.6,71.6,55,30.00,10.0,South,17.3,23.0,N/A,,Clear,190,2013-08-25 19:12:00
2:32 PM,89.6,71.6,55,30.00,10.0,SSW,17.3,25.3,N/A,,Clear,200,2013-08-25 19:32:00
2:52 PM,89.6,71.6,55,30.00,10.0,SSW,18.4,24.2,N/A,,Clear,200,2013-08-25 19:52:00
3:12 PM,91.4,71.6,52,29.99,10.0,South,12.7,24.2,N/A,,Clear,190,2013-08-25 20:12:00
3:32 PM,91.4,71.6,52,29.99,10.0,SSW,17.3,26.5,N/A,,Clear,200,2013-08-25 20:32:00
3:52 PM,91.4,71.6,52,29.99,10.0,SSW,19.6,26.5,N/A,,Clear,200,2013-08-25 20:52:00
4:12 PM,91.4,71.6,52,29.98,10.0,South,16.1,25.3,N/A,,Clear,190,2013-08-25 21:12:00
4:32 PM,91.4,71.6,52,29.98,10.0,South,19.6,26.5,N/A,,Clear,190,2013-08-25 21:32:00
4:52 PM,89.6,71.6,55,29.98,10.0,South,16.1,28.8,N/A,,Clear,190,2013-08-25 21:52:00
5:12 PM,89.6,73.4,59,29.98,10.0,SSW,19.6,27.6,N/A,,Clear,200,2013-08-25 22:12:00
5:32 PM,89.6,73.4,59,29.98,10.0,South,18.4,25.3,N/A,,Clear,190,2013-08-25 22:32:00
5:52 PM,89.6,73.4,59,29.99,10.0,SSW,13.8,23.0,N/A,,Clear,200,2013-08-25 22:52:00
6:12 PM,89.6,73.4,59,29.98,10.0,South,16.1,21.9,N/A,,Clear,190,2013-08-25 23:12:00
6:32 PM,87.8,73.4,62,29.99,10.0,South,15.0,21.9,N/A,,Clear,190,2013-08-25 23:32:00
6:52 PM,87.8,73.4,62,29.98,10.0,South,16.1,24.2,N/A,,Clear,190,2013-08-25 23:52:00
7:12 PM,87.8,71.6,58,29.99,10.0,South,13.8,19.6,N/A,,Clear,190,2013-08-26 00:12:00
7:32 PM,86.0,71.6,62,29.99,10.0,South,13.8,19.6,N/A,,Clear,190,2013-08-26 00:32:00
7:52 PM,84.2,71.6,66,29.99,10.0,South,11.5,-,N/A,,Clear,190,2013-08-26 00:52:00
8:12 PM,84.2,71.6,66,29.99,10.0,South,10.4,16.1,N/A,,Clear,190,2013-08-26 01:12:00
8:32 PM,84.2,71.6,66,29.99,10.0,South,11.5,16.1,N/A,,Clear,190,2013-08-26 01:32:00
8:51 PM,84.2,71.6,66,30.00,10.0,South,9.2,16.1,N/A,,Clear,180,2013-08-26 01:51:00
9:12 PM,82.4,71.6,70,30.01,10.0,South,9.2,-,N/A,,Clear,180,2013-08-26 02:12:00
9:32 PM,82.4,71.6,70,30.01,10.0,South,9.2,-,N/A,,Clear,180,2013-08-26 02:32:00
9:52 PM,80.6,73.4,79,30.02,10.0,South,9.2,-,N/A,,Clear,180,2013-08-26 02:52:00
10:12 PM,80.6,73.4,79,30.02,10.0,South,10.4,-,N/A,,Clear,180,2013-08-26 03:12:00
10:33 PM,80.6,73.4,79,30.02,10.0,South,9.2,17.3,N/A,,Clear,190,2013-08-26 03:33:00
10:52 PM,80.6,73.4,79,30.02,10.0,South,11.5,16.1,N/A,,Clear,180,2013-08-26 03:52:00
11:12 PM,80.6,73.4,79,30.02,10.0,South,10.4,18.4,N/A,,Clear,180,2013-08-26 04:12:00
11:33 PM,80.6,73.4,79,30.02,10.0,South,10.4,17.3,N/A,,Clear,180,2013-08-26 04:33:00
11:52 PM,80.6,73.4,79,30.02,10.0,South,11.5,16.1,N/A,,Clear,190,2013-08-26 04:52:00